Orbital Elements at Epoch 2459000.5 (2020-May-31.0) TDB
Reference: JPL 16 (heliocentric ecliptic J2000)
Element | Value | Uncertainty (1-sigma) | Units |
e | .1655292334878334 | 9.4409e-08 | |
a | 2.52943441351032 | 1.1578e-08 | au |
q | 2.110739073884209 | 2.3929e-07 | au |
i | 4.781203885580831 | 9.0755e-06 | deg |
node | 272.104822455277 | 7.1559e-05 | deg |
peri | 264.0370602227622 | 7.7662e-05 | deg |
M | 77.66012245749735 | 3.0049e-05 | deg |
tp | 2458683.521992215122 (2019-Jul-19.02199221) | 0.0001222 | TDB |
period | 1469.378095109347 4.02 | 1.0089e-05 2.762e-08 | d yr |
n | .245001610680204 | 1.6822e-09 | deg/d |
Q | 2.94812975313643 | 1.3495e-08 | au |
|
| | Orbit Determination Parameters
Additional Information
|